Temperature
5 3 3 3 4 4 4 4 3 4 4 4 3 3 3 3 3 3 3 3 3 3 4 4 4 4 5 5 5 5 5 5 5 6 6 6 6 6 7 7 7 7 7 7
3 3 4 4 4 4 4 3 3 3 4 4 3 3 3 2 2 2 2 2 2 3 3 3 4 4 4 4 4 5 5 5 5 5 5 5 6 6 6 6 7 7 7 7
4 4 4 4 4 4 4 3 3 3 3 3 3 3 2 2 2 2 2 2 2 2 2 2 3 3 3 4 4 4 4 4 5 5 5 5 5 5 5 5 6 6 6 6
3 3 4 4 3 3 3 4 3 3 2 1 2 2 2 1 1 1 1 1 1 1 2 2 2 2 3 3 3 3 4 4 4 4 4 4 4 5 5 5 5 5 5 6
3 3 3 3 3 3 3 3 3 3 1 1 1 1 2 1 1 1 0 0 1 1 1 1 2 2 2 2 2 3 3 3 3 3 4 4 4 4 4 4 4 5 5 5
2 3 3 3 3 3 2 2 2 1 0 1 1 1 1 0 0 0 -0 -0 -0 0 1 1 1 2 2 2 2 2 2 2 3 3 3 3 3 3 3 4 4 4 4 4
2 2 2 2 2 2 2 1 1 1 0 1 1 1 1 0 -0 -0 -0 -0 -0 -0 0 0 1 1 1 1 1 1 1 2 2 2 2 2 3 3 3 3 3 4 4 4
1 2 2 2 1 1 1 1 1 2 1 1 0 0 0 -0 -0 -0 -0 -0 -1 -1 -0 0 0 1 1 1 1 1 1 1 1 2 2 2 2 2 3 3 3 3 3 4
1 1 1 1 1 1 1 -0 0 -0 -1 -1 -1 -1 -0 -1 -1 -1 -1 -1 -1 -1 -1 -0 -0 0 0 0 0 0 0 1 1 1 1 1 1 2 2 2 2 2 3 3
-0 0 1 1 1 1 0 -0 -1 -1 0 0 -0 -0 -0 -1 -1 -2 -2 -2 -1 -1 -1 -1 -1 -0 -0 -0 -0 -0 0 0 0 0 0 0 1 1 1 2 2 2 2 2
-1 -1 -0 -0 -1 -1 -1 -1 -1 -1 -1 -0 -0 0 -1 -1 -2 -2 -2 -2 -2 -2 -1 -1 -1 -1 -1 -0 -0 -0 -1 -0 -0 -0 -0 0 0 0 1 1 1 1 1 2
-1 -2 -2 -1 -1 -1 -1 -2 -2 -1 -1 -2 -1 -0 -1 -2 -2 -2 -2 -2 -2 -2 -2 -2 -1 -1 -1 -1 -1 -1 -1 -1 -1 -1 -1 -1 -0 -0 0 0 0 1 1 1
-1 -2 -1 0 -0 -2 -2 -3 -3 -3 -2 -2 -2 -1 -2 -3 -3 -2 -2 -2 -2 -2 -2 -2 -2 -2 -2 -2 -2 -2 -1 -1 -1 -1 -1 -1 -1 -1 -1 -1 -0 0 0 1
-1 -3 -1 0 0 -2 -2 -3 -4 -3 -3 -3 -3 -2 -2 -3 -4 -3 -2 -2 -2 -2 -2 -3 -2 -2 -2 -2 -2 -2 -2 -2 -2 -2 -2 -1 -1 -1 -1 -1 -1 -1 -0 0
-2 -3 -3 -3 -2 -3 -3 -3 -4 -4 -4 -3 -3 -3 -3 -3 -4 -3 -3 -3 -3 -3 -3 -3 -3 -3 -3 -2 -2 -2 -2 -2 -2 -2 -2 -2 -2 -2 -2 -1 -1 -1 -1 -1
-3 -3 -3 -3 -2 -3 -3 -3 -3 -4 -4 -4 -4 -3 -3 -3 -3 -4 -3 -3 -3 -3 -3 -3 -3 -3 -3 -3 -3 -3 -3 -3 -3 -3 -3 -2 -2 -2 -2 -2 -2 -2 -1 -1
-4 -4 -3 -3 -3 -3 -2 -3 -4 -4 -5 -5 -4 -3 -4 -5 -4 -4 -4 -4 -4 -4 -4 -4 -4 -4 -4 -3 -3 -3 -3 -3 -3 -3 -3 -3 -3 -3 -3 -2 -2 -2 -2 -2
-5 -4 -4 -4 -3 -2 -2 -4 -4 -4 -5 -6 -5 -5 -5 -4 -4 -4 -3 -4 -4 -4 -4 -4 -4 -4 -4 -4 -4 -4 -4 -4 -4 -3 -3 -3 -3 -3 -3 -3 -3 -3 -2 -2
-5 -4 -4 -4 -4 -3 -2 -4 -5 -5 -4 -5 -6 -6 -5 -5 -5 -4 -4 -4 -4 -4 -4 -4 -4 -4 -4 -4 -4 -4 -4 -4 -4 -4 -4 -4 -4 -4 -3 -3 -3 -3 -3 -2
-5 -5 -5 -5 -4 -3 -2 -4 -5 -4 -4 -5 -6 -6 -6 -6 -6 -5 -4 -4 -4 -5 -5 -5 -5 -5 -5 -5 -4 -4 -4 -5 -5 -5 -5 -4 -4 -4 -4 -4 -4 -3 -3 -3
-6 -6 -6 -5 -5 -4 -4 -5 -5 -3 -3 -4 -5 -5 -6 -6 -5 -5 -5 -5 -5 -5 -5 -5 -5 -5 -5 -5 -5 -5 -5 -5 -5 -5 -5 -5 -5 -5 -4 -4 -4 -4 -4 -3
-5 -6 -6 -5 -5 -4 -5 -6 -5 -4 -4 -4 -5 -5 -5 -5 -5 -5 -5 -6 -6 -6 -6 -6 -6 -6 -6 -6 -6 -5 -5 -6 -6 -6 -5 -5 -5 -5 -5 -5 -5 -5 -4 -4
-6 -5 -5 -5 -4 -4 -5 -4 -4 -4 -5 -5 -5 -5 -5 -6 -6 -6 -6 -6 -6 -6 -6 -6 -6 -6 -6 -6 -6 -6 -6 -6 -6 -6 -6 -6 -6 -6 -6 -5 -5 -5 -5 -5
-6 -7 -7 -7 -6 -5 -5 -5 -5 -5 -5 -5 -5 -5 -6 -6 -6 -6 -6 -6 -6 -6 -6 -6 -6 -6 -6 -7 -7 -7 -7 -7 -7 -6 -6 -6 -6 -6 -6 -6 -6 -6 -6 -6
-6 -8 -7 -7 -7 -6 -5 -5 -5 -5 -5 -6 -6 -6 -6 -6 -7 -7 -7 -7 -7 -7 -7 -7 -7 -7 -7 -7 -7 -7 -7 -7 -7 -7 -7 -7 -7 -7 -7 -7 -7 -7 -6 -6
-7 -7 -7 -6 -6 -6 -5 -4 -5 -6 -6 -6 -6 -6 -6 -7 -7 -7 -7 -7 -7 -7 -7 -7 -7 -7 -7 -7 -7 -7 -7 -7 -7 -7 -7 -8 -8 -8 -7 -7 -7 -7 -7 -7
Wind_Speed
4 5 2 2 2 3 3 3 5 6 3 3 5 7 7 5 2 2 2 1 0 1 2 2 2 2 2 2 2 1 1 2 1 1 1 2 2 1 1 2 3 3 3 4
5 2 3 2 1 1 1 3 3 5 3 3 5 7 5 3 3 2 2 2 1 1 2 3 3 3 2 2 1 1 1 2 1 0 1 2 2 2 2 2 2 3 3 3
2 3 3 1 2 2 2 3 4 5 6 3 3 5 3 3 2 2 2 1 1 1 0 2 2 3 3 3 2 1 1 1 2 1 0 0 0 0 1 1 1 2 2 2
0 3 2 1 2 1 4 3 4 4 3 4 1 4 5 4 4 5 4 3 2 2 1 1 1 2 3 3 2 2 2 2 2 2 1 2 1 1 1 1 1 1 1 1
2 2 2 2 3 2 4 5 4 3 2 3 2 2 6 2 4 7 5 4 3 2 1 1 1 1 2 2 2 3 3 3 3 3 2 1 1 1 1 1 2 1 1 2
1 1 1 2 3 2 3 3 2 2 2 3 3 3 5 2 4 6 5 4 3 3 1 1 1 1 2 2 2 3 3 4 4 4 3 1 0 1 1 2 2 1 1 0
5 3 2 1 3 4 4 4 4 5 3 5 2 2 6 4 5 4 4 4 4 2 1 1 1 1 2 2 2 3 3 3 3 3 3 1 1 2 2 2 2 2 1 1
3 5 3 2 1 1 1 3 3 3 4 5 4 4 5 3 5 3 2 2 2 2 1 1 1 1 1 2 2 2 2 3 3 3 3 2 1 1 1 1 1 2 2 2
1 4 3 2 1 2 1 1 2 2 1 4 6 6 6 2 5 5 5 4 4 3 3 2 2 1 1 2 2 2 1 2 3 3 2 1 1 0 1 1 1 1 1 1
3 4 4 3 2 3 2 2 3 2 1 4 6 5 4 5 6 5 5 5 5 4 4 3 2 2 2 2 2 2 1 2 2 2 2 1 0 0 1 0 1 1 2 1
2 2 5 3 1 3 1 1 1 2 2 2 5 7 3 4 4 5 6 6 5 5 4 3 3 3 2 2 2 2 2 2 2 2 2 1 1 0 1 1 1 2 2 2
1 2 4 5 4 2 3 3 4 2 3 3 4 8 3 3 4 4 6 6 6 5 5 4 3 3 2 3 3 3 2 2 2 2 2 2 1 0 1 2 2 2 2 2
2 2 3 5 3 2 0 1 3 2 2 3 4 8 4 5 6 6 5 6 6 5 5 4 4 3 3 3 3 3 3 3 2 2 2 1 2 1 1 2 2 2 2 2
2 3 5 7 7 3 4 4 2 2 3 5 8 10 9 8 9 9 7 6 5 5 4 4 4 4 4 4 3 3 4 3 3 2 2 1 2 2 2 2 2 2 2 2
3 4 6 9 8 5 7 8 5 7 7 8 9 9 11 9 8 8 6 5 5 5 5 4 4 4 4 4 4 4 4 4 3 2 2 2 2 2 2 2 2 2 2 3
2 3 3 6 5 5 9 9 8 8 7 9 11 12 9 7 5 5 5 5 5 6 6 5 4 4 4 4 4 4 4 4 3 2 3 3 2 2 2 2 2 2 2 2
3 3 1 4 4 4 7 8 8 6 6 7 10 10 6 5 6 6 5 5 5 6 6 5 5 4 4 5 4 5 4 4 3 3 3 3 2 2 2 2 2 2 2 2
5 3 2 3 3 6 7 2 5 6 7 7 7 6 4 5 6 4 3 3 5 6 5 5 5 5 5 4 4 4 3 3 3 3 3 3 3 3 2 2 2 3 2 2
4 5 2 1 3 8 6 3 3 4 6 5 6 6 4 3 4 4 3 2 3 4 4 4 4 4 4 5 4 3 3 3 3 3 4 3 3 3 2 3 3 3 2 2
2 3 3 3 3 6 6 2 1 1 5 3 3 5 3 1 3 5 4 4 4 4 4 4 4 4 4 5 4 3 3 4 4 4 4 3 3 2 3 3 3 2 2 2
2 2 4 5 6 8 4 1 2 2 5 3 2 3 3 3 5 4 4 4 3 4 4 4 4 4 5 5 4 3 4 4 5 4 4 3 3 3 3 2 2 1 1 1
7 5 5 5 5 8 1 3 4 5 3 3 3 3 4 5 5 4 3 3 3 4 4 4 4 5 5 5 3 4 5 5 4 4 4 4 4 3 3 1 1 1 1 1
6 7 5 8 7 2 3 4 3 2 3 3 3 4 4 4 5 4 4 4 3 4 4 4 4 5 5 5 3 4 6 5 4 3 3 3 4 3 3 2 1 1 0 1
4 2 3 5 7 4 4 4 3 2 3 4 4 4 3 4 5 4 4 4 3 4 4 4 4 5 6 6 5 4 5 4 3 3 3 3 3 3 2 2 2 1 1 2
4 3 3 6 5 4 4 5 5 4 4 4 4 3 3 3 4 4 4 4 4 4 4 3 4 5 6 6 5 5 5 3 3 3 3 3 3 2 2 2 2 2 2 3
3 5 5 7 5 4 6 4 4 4 4 4 4 4 4 3 4 4 4 4 3 3 3 4 4 5 6 5 5 5 4 3 2 3 3 2 2 2 2 2 3 4 4 5
Wind_Direction
31 60 33 281 212 207 224 247 273 274 282 301 260 272 279 277 265 268 274 275 232 317 323 4 20 22 19 23 42 50 17 356 30 153 172 182 184 167 122 90 122 119 139 138
39 23 270 269 264 272 229 269 283 299 309 298 279 280 275 264 241 231 250 278 280 332 1 5 19 23 9 12 3 34 19 11 1 230 215 206 199 188 161 102 92 105 127 138
134 261 287 305 340 341 292 225 250 285 317 314 313 301 294 310 323 340 329 303 313 191 261 328 8 10 360 3 352 353 7 14 11 10 84 106 135 121 121 132 109 60 96 131
335 293 300 326 322 322 274 247 265 281 321 292 310 284 282 284 318 321 320 322 315 310 320 320 2 6 349 340 344 357 16 28 21 31 92 138 163 194 196 191 168 57 65 91
299 305 340 313 284 261 250 283 276 255 221 292 288 222 284 322 300 297 298 302 306 301 277 264 285 328 345 345 5 21 20 27 26 22 29 103 88 211 175 161 161 156 46 45
267 293 293 268 286 263 301 353 7 46 78 295 250 201 283 268 274 294 295 299 297 287 289 282 308 31 14 7 25 31 26 16 19 19 14 24 101 120 142 159 181 177 175 110
338 328 340 7 360 5 35 54 13 351 351 261 270 232 258 278 293 278 276 280 293 295 298 334 339 16 2 4 8 20 22 8 7 13 360 323 251 197 173 183 197 190 174 207
349 306 313 356 107 268 345 124 153 237 258 288 314 252 258 287 320 325 305 293 307 314 307 305 318 351 357 357 358 7 13 1 355 358 341 323 252 203 198 196 204 210 211 223
221 274 316 342 335 130 104 181 188 168 264 280 277 281 294 304 340 350 349 342 315 301 299 300 313 321 324 334 329 323 345 349 342 334 329 342 354 334 241 215 195 212 237 261
173 274 292 316 16 17 151 155 97 123 252 280 290 280 277 296 303 314 321 307 297 302 303 298 296 298 302 301 313 326 340 326 319 324 311 319 287 243 271 237 252 241 244 259
138 217 306 348 212 241 48 95 138 168 192 220 286 278 242 254 272 282 285 292 291 295 292 284 289 297 298 302 315 325 311 316 320 315 304 325 310 302 271 260 253 253 254 252
139 148 273 261 251 212 175 181 160 184 249 219 255 275 278 286 294 284 294 303 300 297 296 293 297 309 312 310 313 309 299 292 289 293 297 303 316 347 295 278 271 265 252 255
138 131 322 328 332 354 309 213 186 186 198 223 243 271 327 342 326 311 301 302 302 302 306 309 309 305 306 310 310 310 314 299 290 287 290 306 308 294 269 275 268 263 258 255
117 173 208 236 251 238 268 265 226 180 221 250 241 267 296 309 309 308 303 299 303 301 302 312 312 307 308 311 313 315 317 307 300 297 288 282 274 265 261 257 266 261 252 253
136 225 242 256 263 251 252 254 232 220 225 234 259 262 273 284 284 289 295 303 313 313 312 307 307 311 313 319 320 316 314 315 313 308 296 275 273 269 260 261 259 259 253 260
160 226 261 278 264 249 265 258 238 237 240 244 265 274 274 290 294 298 300 306 302 303 299 302 308 310 309 311 313 316 315 310 312 300 293 291 288 280 264 257 254 258 263 256
186 182 244 276 299 315 276 245 220 232 226 213 240 260 294 309 301 291 289 297 299 304 306 306 307 304 304 303 301 295 293 303 310 302 298 304 300 278 267 266 268 265 267 271
171 172 206 280 353 253 248 217 208 232 244 230 253 277 279 281 297 290 284 284 300 310 314 314 313 313 311 304 304 303 311 314 307 303 301 305 303 288 268 254 256 262 263 260
173 165 186 215 264 275 283 243 199 217 269 239 246 271 290 319 335 311 298 294 291 299 300 298 302 305 314 316 313 321 329 330 326 318 307 299 291 284 269 254 249 252 251 260
103 132 168 192 230 251 259 258 229 135 283 268 239 260 268 355 317 291 309 320 312 315 317 317 321 328 330 325 330 334 325 328 319 312 307 305 294 282 275 267 261 258 251 257
156 184 201 212 235 263 263 252 107 173 269 299 261 264 247 243 254 277 304 317 319 324 324 330 337 334 324 327 339 333 326 314 307 309 313 319 314 293 275 262 268 259 256 274
185 186 201 190 219 255 189 126 183 237 297 296 276 271 270 273 281 287 296 307 319 327 329 334 336 328 327 334 339 328 319 310 313 317 322 323 318 309 308 281 279 269 225 238
203 198 199 201 219 263 174 204 235 245 272 276 281 287 277 280 278 285 293 297 302 308 316 325 325 324 328 332 332 312 308 316 320 324 323 320 318 316 316 308 283 275 261 243
242 201 207 255 262 262 246 248 270 265 263 277 277 272 264 273 278 285 290 299 306 312 315 320 325 324 322 323 321 303 306 314 317 315 315 314 312 312 317 310 297 281 255 251
227 180 222 254 275 303 271 248 259 274 283 291 297 283 267 263 275 275 284 294 301 309 316 320 316 310 309 315 317 315 312 310 311 308 306 307 305 301 311 305 286 274 261 253
197 191 206 243 241 236 269 273 251 255 268 273 283 297 295 269 269 277 283 290 297 303 311 314 311 307 308 312 313 315 314 311 301 303 303 300 298 298 300 301 316 312 296 300
Height
1525 1529 1533 1533 1531 1531 1531 1532 1532 1528 1524 1524 1522 1519 1517 1514 1513 1511 1510 1509 1508 1508 1507 1507 1507 1506 1506 1507 1507 1507 1508 1509 1509 1510 1511 1512 1513 1514 1516 1517 1519 1520 1522 1524
1530 1533 1532 1530 1530 1529 1530 1532 1532 1528 1523 1524 1522 1518 1515 1512 1512 1511 1509 1508 1507 1506 1505 1505 1504 1504 1505 1505 1505 1505 1505 1506 1507 1508 1509 1510 1510 1512 1513 1514 1516 1517 1519 1521
1533 1534 1530 1530 1530 1530 1529 1531 1531 1530 1526 1523 1523 1518 1515 1511 1510 1510 1508 1507 1506 1505 1504 1504 1503 1503 1503 1503 1503 1503 1504 1504 1505 1505 1506 1507 1508 1509 1511 1512 1513 1514 1516 1518
1534 1532 1531 1530 1530 1531 1531 1528 1528 1528 1531 1531 1527 1527 1515 1512 1510 1508 1507 1506 1504 1504 1504 1503 1502 1502 1502 1502 1502 1501 1502 1502 1503 1503 1504 1504 1504 1505 1507 1508 1510 1512 1514 1516
1535 1533 1531 1531 1531 1530 1530 1527 1527 1527 1530 1533 1529 1529 1518 1514 1512 1509 1507 1505 1504 1503 1502 1502 1501 1501 1501 1501 1501 1500 1500 1500 1500 1501 1501 1501 1502 1503 1504 1506 1507 1509 1511 1512
1535 1533 1533 1532 1530 1529 1528 1528 1528 1530 1533 1534 1528 1528 1520 1516 1513 1509 1506 1505 1504 1502 1501 1501 1501 1500 1500 1500 1499 1498 1498 1498 1498 1498 1498 1498 1499 1500 1501 1503 1504 1505 1507 1509
1538 1535 1533 1532 1531 1530 1531 1534 1538 1538 1541 1533 1526 1526 1521 1513 1511 1509 1507 1504 1502 1501 1499 1498 1498 1498 1498 1497 1497 1496 1496 1496 1496 1496 1496 1496 1496 1497 1498 1499 1501 1501 1503 1505
1544 1540 1535 1534 1534 1536 1535 1537 1542 1542 1541 1535 1529 1526 1518 1512 1510 1507 1506 1504 1502 1500 1498 1497 1496 1496 1496 1496 1495 1495 1494 1494 1494 1494 1493 1493 1493 1494 1495 1497 1498 1499 1500 1502
1546 1542 1536 1535 1534 1535 1536 1540 1539 1543 1544 1545 1534 1526 1515 1511 1509 1507 1505 1503 1501 1500 1498 1497 1496 1495 1495 1494 1494 1493 1492 1492 1492 1492 1491 1491 1491 1491 1493 1494 1495 1496 1497 1499
1545 1546 1538 1536 1535 1535 1537 1538 1543 1543 1540 1537 1531 1526 1518 1512 1510 1508 1506 1503 1501 1499 1498 1497 1496 1494 1494 1493 1492 1491 1490 1490 1490 1489 1489 1488 1488 1488 1489 1490 1491 1493 1494 1495
1545 1547 1543 1540 1539 1539 1539 1541 1541 1543 1540 1539 1533 1523 1513 1511 1509 1508 1505 1503 1500 1498 1497 1495 1494 1493 1493 1492 1490 1489 1489 1488 1488 1487 1487 1486 1485 1486 1487 1487 1488 1489 1491 1492
1544 1548 1547 1542 1537 1536 1538 1540 1542 1542 1541 1542 1538 1525 1509 1508 1507 1506 1504 1502 1500 1498 1496 1494 1493 1491 1490 1489 1488 1488 1487 1486 1485 1485 1484 1483 1483 1483 1484 1484 1485 1486 1487 1488
1544 1547 1545 1537 1540 1540 1539 1540 1541 1541 1541 1541 1537 1523 1509 1508 1506 1505 1503 1501 1498 1497 1495 1493 1491 1490 1488 1487 1486 1485 1484 1483 1483 1482 1481 1481 1480 1480 1481 1481 1482 1483 1484 1485
1541 1547 1545 1538 1534 1537 1539 1538 1539 1539 1539 1537 1530 1519 1512 1509 1507 1503 1501 1499 1497 1495 1493 1491 1489 1488 1487 1485 1484 1483 1482 1481 1481 1479 1478 1478 1478 1478 1478 1479 1479 1480 1481 1481
1541 1545 1543 1539 1535 1536 1535 1534 1535 1536 1533 1530 1521 1519 1510 1508 1505 1502 1500 1497 1495 1493 1492 1490 1488 1487 1485 1483 1482 1481 1480 1479 1478 1477 1476 1476 1476 1476 1476 1476 1477 1477 1478 1479
1540 1542 1541 1536 1532 1533 1531 1527 1528 1528 1528 1526 1521 1514 1506 1504 1503 1500 1498 1496 1494 1492 1491 1489 1487 1485 1484 1482 1480 1479 1477 1476 1476 1474 1473 1473 1473 1473 1473 1473 1474 1474 1475 1475
1540 1541 1541 1536 1532 1530 1526 1520 1521 1522 1519 1519 1516 1509 1504 1502 1500 1498 1496 1495 1493 1491 1489 1487 1486 1484 1482 1480 1478 1476 1475 1474 1473 1472 1471 1470 1470 1470 1470 1470 1471 1471 1471 1472
1537 1539 1540 1538 1535 1529 1516 1514 1514 1514 1512 1512 1508 1504 1503 1501 1499 1497 1495 1494 1492 1490 1488 1486 1484 1483 1481 1479 1476 1474 1472 1471 1470 1469 1468 1467 1466 1466 1467 1467 1467 1468 1468 1469
1532 1535 1539 1539 1538 1525 1514 1512 1513 1513 1509 1505 1505 1502 1501 1499 1497 1494 1494 1492 1491 1489 1487 1485 1483 1481 1479 1477 1474 1472 1470 1468 1467 1466 1465 1464 1463 1463 1463 1464 1465 1465 1466 1466
1532 1534 1538 1538 1534 1525 1510 1510 1508 1511 1507 1501 1501 1500 1499 1499 1499 1495 1492 1491 1489 1488 1486 1484 1481 1479 1477 1474 1472 1470 1468 1466 1464 1463 1462 1462 1461 1460 1460 1460 1461 1462 1462 1463
1535 1536 1536 1535 1532 1518 1510 1508 1509 1512 1505 1500 1498 1498 1498 1497 1496 1494 1491 1489 1488 1486 1484 1482 1479 1477 1475 1472 1470 1468 1466 1464 1463 1461 1460 1459 1458 1458 1458 1458 1458 1459 1459 1459
1527 1530 1531 1530 1530 1517 1507 1507 1509 1505 1500 1498 1497 1496 1495 1494 1492 1491 1489 1487 1486 1484 1482 1480 1477 1475 1473 1471 1468 1465 1464 1462 1461 1459 1458 1457 1456 1456 1455 1455 1455 1455 1456 1456
1520 1517 1517 1516 1511 1504 1502 1501 1501 1500 1499 1497 1495 1494 1493 1491 1489 1488 1487 1485 1483 1482 1480 1477 1475 1473 1471 1469 1466 1464 1462 1460 1458 1457 1455 1455 1454 1453 1452 1452 1452 1452 1452 1453
1514 1512 1513 1511 1503 1501 1500 1498 1498 1497 1496 1495 1493 1492 1490 1488 1487 1485 1484 1482 1481 1479 1477 1475 1473 1471 1468 1466 1464 1462 1460 1458 1456 1454 1453 1452 1451 1450 1450 1450 1449 1449 1450 1450
1509 1510 1509 1507 1501 1499 1496 1495 1495 1494 1493 1491 1490 1489 1487 1486 1484 1483 1481 1480 1478 1477 1475 1473 1471 1468 1466 1464 1462 1460 1458 1456 1454 1452 1451 1450 1449 1448 1447 1447 1447 1447 1447 1448
1504 1505 1506 1500 1497 1497 1493 1492 1492 1490 1489 1488 1487 1485 1484 1483 1482 1481 1479 1478 1476 1474 1472 1470 1468 1466 1464 1461 1459 1457 1455 1453 1452 1450 1449 1448 1447 1446 1445 1445 1445 1445 1445 1446